Skip Page Navigation
NASA JPL Caltech
NASA Logo - Jet Propulsion Laboratory + View the NASA Portal
+ Center for Near-Earth Object Studies
JPL Home Earth Solar System Stars & Galaxies Technology
JPL Solar System Dynamics
BODIES ORBITS EPHEMERIDES TOOLS PHYSICAL DATA DISCOVERY FAQ SITE MAP
IMPORTANT: The SSD Announcement email list is now available. Major changes are coming in the near future, including possible hostname and/or URL changes. To be notified of such changes, subscribe to this email list.

Please visit this page for more details.


JPL Small-Body Database Browser
Search: [ help ]  
324369 (2006 QF166)
Classification: Main-belt Asteroid          SPK-ID: 2324369
Ephemeris | Orbit Diagram | Orbital Elements | Mission Design | Physical Parameters | Discovery Circumstances | Close-Approach Data ]

[ show orbit diagram ]
Orbital Elements at Epoch 2458600.5 (2019-Apr-27.0) TDB
Reference: JPL 14 (heliocentric ecliptic J2000)
 Element Value Uncertainty (1-sigma)   Units 
e .1610388882921252 4.3591e-08  
a 2.225541394420723 1.259e-08 au
q 1.867142682415104 9.8038e-08 au
i 4.503599347924855 4.86e-06 deg
node 285.1587850086007 6.3502e-05 deg
peri 4.483166631575465 6.6241e-05 deg
M 341.3164061906372 1.6088e-05 deg
tp 2458663.437553592704
(2019-Jun-28.93755359)
5.4022e-05 TDB
period 1212.695990105469
3.32
1.029e-05
2.817e-08
d
yr
n .2968592317755505 2.519e-09 deg/d
Q 2.583940106426343 1.4617e-08 au
  Orbit Determination Parameters
   # obs. used (total)      263  
   data-arc span      8339 days (22.83 yr)  
   first obs. used      1996-10-05  
   last obs. used      2019-08-05  
   planetary ephem.      DE431  
   SB-pert. ephem.      SB431-N16  
   condition code      0  
   norm. resid. RMS      .59748  
   source      ORB  
   producer      Otto Matic  
   solution date      2019-Sep-24 06:13:17  

Additional Information
 Earth MOID = .85021 au 
 Jupiter MOID = 2.57701 au 
 T_jup = 3.625 
[ show covariance matrix ]

Ephemeris | Orbit Diagram | Orbital Elements | Mission Design | Physical Parameters | Discovery Circumstances | Close-Approach Data ]

Physical Parameter Table
Parameter Symbol Value Units Sigma Reference Notes
absolute magnitude H 17.1   n/a MPO437406  

324369 (2006 QF166)          Discovered 2006-Aug-29 by CSS at Catalina
Reference: 20120406/Numbers.arcLast Updated: 2012-04-09

[ show close-approach data ]
Ephemeris | Orbit Diagram | Orbital Elements | Mission Design | Physical Parameters | Discovery Circumstances | Close-Approach Data ]
ABOUT SSD CREDITS/AWARDS PRIVACY/COPYRIGHT GLOSSARY LINKS
FirstGov 2019-Oct-14 12:01 UT
(server date/time)  
NASA Home Page
Site Manager:   Ryan S. Park
Webmaster  Alan B. Chamberlin